Location: Buch
(49.7331°N, 12.1098°E)
Time: 16:09:27
(UTC+00:00)

Cosmos 372 Rocket - Pass Details

Date: 12 May 2021
Orbit: 738 x 768 km, 74.1° (Epoch: 17 June)

Event Time Altitude Azimuth Distance (km) Brightness Sun altitude
Exits shadow 22:25:44 46° 198° (SSW) 991 4.2 -21.3°
Maximum altitude 22:27:18 87° 111° (ESE) 747 3.8 -21.3°
Drops below altitude 10° 22:32:25 10° 24° (NNE) 2,258 7.2 -21.4°
Sets 22:34:47 0° 25° (NNE) 3,187 8.1 -21.5°
